User: anonymous   Login
Location: Hoyos del Collado
(40.3594°N, 5.2003°W)
Time: 05:32:28
(UTC+00:00)
Language:

CZ-4C R/B - Orbit

View from above orbital plane
View from above orbital plane
View from above satellite
View from above satellite

Ground track
Ground track

The orbit data is extracted from the following two-line orbital elements,

1 39211U 13037D   24173.56976805  .00006264  00000-0  28012-3 0  9997
2 39211  98.0358  34.3438 0097096 288.0971  70.9704 15.17518115600088
Epoch (UTC): 21 June 2024 13:40:27
Eccentricity: 0.0097096
inclination: 98.0358°
perigee height: 446 km
apogee height: 580 km
right ascension of ascending node: 34.3438°
argument of perigee: 288.0971°
revolutions per day: 15.17518115
mean anomaly at epoch: 70.9704°
orbit number at epoch: 60008

The dashed part of the orbit path shows where the satellite is in the earth's shadow,  

DLR